Weather observations for the past three days for
Chariton
Imperial (Metric)
Date Time (cdt) Wind (mph) Vis. (mi.) Weather Sky Cond. Temperature (ºF) Relative Humidity Wind Chill (°F) Heat Index (°F) Pressure Precipitation (in)
Air Dwpt 6 hour altimeter (in) sea level (mb) 1 hr 3 hr 6 hr
Max. Min.
09 18:35 N 15 G 23 10.00 Fair CLR 68 42.8 40% 29.82 0.0
09 18:15 N 14 G 21 10.00 Fair CLR 68 42.8 40% 29.81 0.0
09 17:55 N 16 10.00 A Few Clouds FEW120 68 42.8 40% 29.8 0.0
09 17:35 N 15 G 21 10.00 Fair CLR 68 42.8 40% 29.8 0.0
09 17:15 N 12 10.00 Fair CLR 69.8 41 35% 29.79 0.0
09 16:55 N 13 10.00 Fair CLR 69.8 37.4 31% 29.78 0.0
09 16:35 N 10 10.00 Fair CLR 69.8 33.8 27% 29.78 0.0
09 16:15 N 13 G 20 10.00 A Few Clouds FEW110 71.6 33.8 25% 29.78 0.0
09 15:55 N 13 10.00 Fair CLR 71.6 33.8 25% 29.77 0.0
09 15:35 NW 14 9.00 Fair CLR 73.4 32 22% 29.77 0.0
09 15:15 NW 15 G 21 10.00 Fair CLR 73.4 32 22% 29.77 0.0
09 14:55 N 14 9.00 Fair CLR 75.2 33.8 22% 76 29.77 0.0
09 14:35 NW 10 G 21 10.00 Fair CLR 77 32 19% 77 29.77 0.0
09 14:15 NW 9 G 25 10.00 Fair CLR 77 33.8 21% 77 29.77 0.0
09 13:55 NW 10 G 20 10.00 Fair CLR 77 33.8 21% 77 29.77 0.0
09 13:35 NW 13 G 22 10.00 Fair CLR 75.2 33.8 22% 76 29.76 0.0
09 13:15 NW 8 G 22 10.00 Fair CLR 75.2 32 21% 76 29.76 0.0
09 12:55 NW 10 10.00 Fair CLR 75.2 33.8 22% 76 29.76 0.0
09 12:35 NW 13 G 18 10.00 Fair CLR 75.2 33.8 22% 76 29.76 0.0
09 12:15 NW 15 9.00 Fair CLR 73.4 35.6 25% 29.77 0.0
09 11:55 N 14 G 22 9.00 Fair CLR 75.2 37.4 25% 77 29.77 0.0
09 11:35 N 14 G 24 9.00 Fair CLR 73.4 35.6 25% 29.76 0.0
09 11:15 NW 20 10.00 Fair CLR 75.2 32 21% 76 29.76 0.0
09 10:55 W 16 10.00 Fair CLR 73.4 33.8 23% 29.74 0.0
09 10:35 W 14 9.00 Fair CLR 71.6 33.8 25% 29.74 0.0
09 10:15 W 15 9.00 Fair CLR 69.8 35.6 29% 29.74 0.0
09 09:55 W 12 10.00 Fair CLR 69.8 35.6 29% 29.73 0.0
09 09:35 W 8 9.00 Fair CLR 68 39.2 35% 29.74 0.0
09 09:15 SW 6 9.00 Fair CLR 64.4 42.8 46% 29.74 0.0
09 08:55 W 5 10.00 Fair CLR 60.8 42.8 52% 29.74 0.0
09 08:35 W 8 10.00 Fair CLR 59 44.6 59% 29.74 0.0
09 08:15 W 8 0.00 Fair CLR 55.4 46.4 72% 29.74 0.0
09 07:55 W 9 9.00 Fair CLR 53.6 53.6 100% 29.73 0.0
09 07:35 W 8 10.00 Fair CLR 51.8 51.8 100% 29.73 0.0
09 07:15 W 6 10.00 Fair CLR 50 50 100% 48 29.73 0.0
09 06:55 W 6 10.00 Fair CLR 48.2 48.2 100% 46 29.72 0.0
09 06:35 SW 8 10.00 Fair CLR 46.4 46.4 100% 43 29.71 0.0
09 06:15 W 8 10.00 Fair CLR 46.4 46.4 100% 43 29.7 0.0
09 05:55 SW 7 10.00 Fair CLR 46.4 46.4 100% 43 29.7 0.0
09 05:35 SW 7 10.00 Fair CLR 46.4 46.4 100% 43 29.69 0.0
09 05:15 W 8 10.00 A Few Clouds FEW032 FEW039 48.2 48.2 100% 45 29.69 0.0
09 04:55 W 6 10.00 Fair CLR 48.2 48.2 100% 46 29.7 0.0
09 04:35 W 8 10.00 A Few Clouds FEW032 FEW041 48.2 48.2 100% 45 29.69 0.0
09 04:15 W 8 10.00 A Few Clouds FEW024 FEW031 FEW040 50 50 100% 47 29.7 0.0
09 03:55 SW 8 10.00 Fair CLR 50 50 100% 47 29.69 0.0
09 03:35 W 8 10.00 Fair CLR 51.8 51.8 100% 29.69 0.0
09 03:15 SW 8 10.00 Fair CLR 51.8 51.8 100% 29.69 0.0
09 02:55 W 9 10.00 Fair CLR 51.8 51.8 100% 29.69 0.0
09 02:35 SW 8 10.00 Fair CLR 51.8 51.8 100% 29.69 0.0
09 02:15 SW 7 10.00 Fair CLR 53.6 53.6 100% 29.7 0.0
09 01:55 SW 8 10.00 A Few Clouds FEW110 53.6 53.6 100% 29.7 0.0
09 01:35 SW 8 10.00 Fair CLR 53.6 53.6 100% 29.7 0.0
09 01:15 SW 7 10.00 Fair CLR 53.6 53.6 100% 29.7 0.0
09 00:55 SW 9 G 21 10.00 Fair CLR 53.6 53.6 100% 29.7 0.0
09 00:35 SW 8 10.00 Fair CLR 55.4 55.4 100% 29.7 0.0
09 00:15 SW 8 10.00 Fair CLR 55.4 55.4 100% 29.71 0.0
08 23:55 SW 8 10.00 Fair CLR 55.4 55.4 100% 29.71 0.0
08 23:35 SW 8 10.00 Fair CLR 53.6 53.6 100% 29.71 0.0
08 23:15 S 8 10.00 Fair CLR 53.6 53.6 100% 29.72 0.0
08 22:55 S 8 10.00 A Few Clouds FEW110 55.4 55.4 100% 29.72 0.0
08 22:35 S 9 0.00 NULL NULL 55.4 55.4 100% 29.72 0.0
08 22:15 S 9 10.00 A Few Clouds FEW110 55.4 55.4 100% 29.72 0.0
08 21:55 S 10 10.00 Partly Cloudy FEW075 FEW100 SCT120 57.2 53.6 88% 29.71 0.0
08 21:35 SW 12 10.00 Overcast FEW070 BKN095 OVC110 59 51.8 77% 29.71 0.0
08 21:15 SW 7 10.00 Partly Cloudy SCT110 59 51.8 77% 29.72 0.0
08 20:55 S 12 10.00 Fair CLR 59 50 72% 29.7 0.0
08 20:35 S 10 10.00 Fair CLR 60.8 50 68% 29.7 0.0
08 20:15 S 12 9.00 Fair CLR 62.6 50 64% 29.69 0.0
08 19:55 S 13 G 18 10.00 Fair CLR 64.4 48.2 56% 29.69 0.0
08 19:35 S 14 10.00 Fair CLR 66.2 48.2 52% 29.68 0.0
08 19:15 S 14 G 21 10.00 Fair CLR 68 44.6 43% 29.68 0.0
08 18:55 SW 16 10.00 Fair CLR 68 42.8 40% 29.69 0.0
08 18:35 SW 10 10.00 Fair CLR 69.8 42.8 38% 29.69 0.0
08 18:15 SW 14 10.00 Fair CLR 69.8 42.8 38% 29.7 0.0
08 17:55 SW 12 9.00 Fair CLR 71.6 41 33% 29.7 0.0
08 17:35 SW 10 G 17 10.00 Fair CLR 71.6 39.2 31% 29.7 0.0
08 17:15 W 12 9.00 Fair CLR 71.6 37.4 29% 29.71 0.0
08 16:55 SW 10 9.00 Fair CLR 71.6 39.2 31% 29.71 0.0
08 16:35 Vrbl 5 9.00 Fair CLR 69.8 37.4 31% 29.72 0.0
08 16:15 W 12 10.00 Fair CLR 71.6 37.4 29% 29.72 0.0
08 15:55 W 10 10.00 Fair CLR 71.6 39.2 31% 29.73 0.0
08 15:35 SW 9 G 15 10.00 A Few Clouds FEW070 FEW085 71.6 39.2 31% 29.73 0.0
08 15:15 Vrbl 6 G 14 10.00 A Few Clouds FEW075 71.6 37.4 29% 29.74 0.0
08 14:55 W 9 G 17 10.00 Fair CLR 69.8 37.4 31% 29.75 0.0
08 14:35 SW 8 G 16 10.00 Fair CLR 69.8 39.2 33% 29.75 0.0
08 14:15 SW 9 G 15 10.00 Fair CLR 68 37.4 33% 29.76 0.0
08 13:55 SW 9 G 17 9.00 Fair CLR 68 37.4 33% 29.77 0.0
08 13:35 Vrbl 6 G 16 10.00 Fair CLR 68 37.4 33% 29.77 0.0
08 13:15 S 9 G 15 10.00 Fair CLR 68 44.6 43% 29.78 0.0
08 12:55 S 8 G 15 10.00 Fair CLR 66.2 42.8 43% 29.78 0.0
08 12:35 SW 9 9.00 Fair CLR 66.2 44.6 46% 29.78 0.0
08 12:15 S 7 10.00 Fair CLR 66.2 46.4 49% 29.79 0.0
08 11:55 S 6 9.00 Fair CLR 62.6 46.4 56% 29.79 0.0
08 11:35 S 8 10.00 Fair CLR 60.8 48.2 63% 29.8 0.0
08 11:15 S 5 10.00 Fair CLR 59 48.2 68% 29.8 0.0
08 10:55 Vrbl 5 10.00 Fair CLR 59 59 100% 29.81 0.0
08 10:35 Calm 10.00 Fair CLR 55.4 55.4 100% 29.8 0.0
08 10:15 S 5 9.00 Fair CLR 53.6 53.6 100% 29.81 0.0
08 09:55 S 7 9.00 Fair CLR 51.8 51.8 100% 29.8 0.0
08 09:35 Vrbl 7 9.00 Light Rain CLR 51.8 51.8 100% 29.81 0.0
08 09:15 Calm 9.00 Fair CLR 51.8 51.8 100% 29.83 0.0
08 08:55 Calm 10.00 A Few Clouds FEW095 51.8 51.8 100% 29.82 0.0
08 08:35 SE 5 10.00 Mostly Cloudy BKN095 50 50 100% 49 29.82 0.0
08 08:15 S 5 10.00 Fair CLR 48.2 48.2 100% 47 29.81 0.0
08 07:55 Calm 10.00 Fair CLR 48.2 48.2 100% 29.8 0.0
08 07:35 Calm 10.00 Fair CLR 46.4 46.4 100% 29.79 0.0
08 07:15 Calm 10.00 A Few Clouds FEW075 FEW085 46.4 46.4 100% 29.8 0.0
08 06:55 Calm 10.00 A Few Clouds FEW085 FEW110 44.6 44.6 100% 29.8 0.0
08 06:35 Calm 10.00 A Few Clouds FEW110 44.6 44.6 100% 29.81 0.0
08 06:15 S 3 8.00 Partly Cloudy FEW085 SCT120 44.6 44.6 100% 29.8 0.0
08 05:55 Calm 10.00 Overcast BKN085 OVC110 42.8 42.8 100% 29.8 0.0
08 05:35 N 5 10.00 Mostly Cloudy BKN090 BKN120 41 41 100% 38 29.8 0.0
08 05:15 Calm 10.00 Mostly Cloudy BKN100 BKN120 42.8 42.8 100% 29.81 0.0
08 04:55 Calm 10.00 Partly Cloudy SCT110 42.8 42.8 100% 29.81 0.0
08 04:35 NW 5 10.00 Partly Cloudy SCT110 42.8 42.8 100% 41 29.8 0.0
08 04:15 NW 6 10.00 Partly Cloudy SCT110 41 41 100% 38 29.8 0.0
08 03:55 NW 7 10.00 Fair CLR 41 41 100% 37 29.8 0.0
08 03:35 NW 6 10.00 Fair CLR 42.8 42.8 100% 40 29.8 0.0
08 03:15 NW 6 10.00 Fair CLR 44.6 44.6 100% 42 29.8 0.0
08 02:55 W 5 10.00 Fair CLR 44.6 44.6 100% 43 29.8 0.0
08 02:35 SW 3 10.00 A Few Clouds FEW037 46.4 46.4 100% 29.8 0.0
08 02:15 W 6 10.00 Fair CLR 46.4 46.4 100% 44 29.8 0.0
08 01:55 SW 6 10.00 Fair CLR 50 42.8 76% 48 29.8 0.0
08 01:35 SW 6 10.00 Fair CLR 50 42.8 76% 48 29.81 0.0
08 01:15 SW 5 10.00 A Few Clouds FEW040 50 42.8 76% 49 29.81 0.0
08 00:55 SW 3 10.00 Fair CLR 51.8 42.8 72% 29.81 0.0
08 00:35 S 8 10.00 Fair CLR 50 42.8 76% 47 29.8 0.0
08 00:15 S 5 10.00 Fair CLR 51.8 42.8 72% 29.8 0.0
07 23:55 S 5 10.00 Fair CLR 51.8 42.8 72% 29.81 0.0
07 23:35 S 5 0.00 Fair CLR 53.6 41 63% 29.81 0.0
07 23:15 S 5 10.00 Fair CLR 57.2 41 55% 29.81 0.0
07 22:55 Calm 10.00 Fair CLR 53.6 41 63% 29.81 0.0
07 22:35 NE 5 10.00 Fair CLR 55.4 41 59% 29.81 0.0
07 22:15 N 6 10.00 Fair CLR 53.6 39.2 58% 29.8 0.0
07 21:55 SE 5 10.00 Fair CLR 57.2 41 55% 29.8 0.0
07 21:35 S 8 10.00 A Few Clouds FEW085 59 41 51% 29.8 0.0
07 21:15 S 9 10.00 Overcast OVC090 59 39.2 48% 29.79 0.0
07 20:55 S 9 10.00 Overcast OVC090 59 39.2 48% 29.78 0.0
07 20:35 S 8 8.00 Overcast BKN090 OVC110 60.8 39.2 45% 29.78 0.0
07 20:15 S 7 10.00 Mostly Cloudy BKN090 BKN110 62.6 39.2 42% 29.77 0.0
07 19:55 S 8 10.00 Mostly Cloudy BKN090 BKN110 64.4 37.4 37% 29.77 0.0
07 19:35 S 7 9.00 Partly Cloudy SCT090 SCT110 64.4 37.4 37% 29.77 0.0
07 19:15 SW 8 10.00 Fair CLR 66.2 35.6 32% 29.77 0.0
07 18:55 SW 12 9.00 Fair CLR 66.2 35.6 32% 29.77 0.0
07 18:35 SW 12 7.00 A Few Clouds FEW090 66.2 35.6 32% 29.77 0.0
07 18:15 SW 13 10.00 A Few Clouds FEW090 66.2 35.6 32% 29.78 0.0
07 17:55 SW 10 G 17 10.00 Partly Cloudy SCT090 66.2 37.4 35% 29.78 0.0
07 17:35 SW 12 G 21 10.00 Partly Cloudy SCT095 SCT120 66.2 35.6 32% 29.79 0.0
07 17:15 SW 12 9.00 Partly Cloudy FEW085 SCT110 68 35.6 30% 29.79 0.0
07 16:55 SW 10 G 20 9.00 A Few Clouds FEW080 FEW110 66.2 33.8 30% 29.8 0.0
07 16:35 W 12 G 21 10.00 A Few Clouds FEW080 FEW110 68 33.8 28% 29.8 0.0
07 16:15 SW 10 G 22 10.00 Partly Cloudy SCT075 SCT100 66.2 35.6 32% 29.81 0.0
07 15:55 SW 14 G 22 10.00 Partly Cloudy SCT095 66.2 33.8 30% 29.81 0.0
07 15:35 SW 14 G 24 10.00 Partly Cloudy FEW075 FEW090 SCT110 68 33.8 28% 29.82 0.0
07 15:15 W 12 G 22 10.00 Mostly Cloudy SCT080 BKN085 BKN110 66.2 33.8 30% 29.83 0.0
07 14:55 SW 15 G 25 10.00 Mostly Cloudy SCT070 BKN085 66.2 33.8 30% 29.83 0.0
07 14:35 SW 14 G 24 10.00 Partly Cloudy SCT070 SCT085 66.2 33.8 30% 29.84 0.0
07 14:15 SW 10 G 21 10.00 Partly Cloudy SCT075 SCT085 64.4 35.6 34% 29.84 0.0
07 13:55 SW 15 G 22 10.00 Mostly Cloudy SCT075 BKN090 66.2 33.8 30% 29.84 0.0
07 13:35 W 12 G 24 9.00 Partly Cloudy SCT070 SCT080 66.2 33.8 30% 29.85 0.0
07 13:15 W 15 G 21 10.00 Partly Cloudy SCT070 64.4 30.2 28% 29.86 0.0
07 12:55 W 12 G 18 10.00 Partly Cloudy SCT070 64.4 33.8 32% 29.86 0.0
07 12:35 SW 14 G 24 10.00 Partly Cloudy SCT060 SCT075 64.4 35.6 34% 29.87 0.0
07 12:15 W 14 G 20 10.00 Partly Cloudy FEW060 SCT070 62.6 37.4 39% 29.88 0.0
07 11:55 W 12 G 18 9.00 Fair CLR 62.6 39.2 42% 29.89 0.0
07 11:35 SW 10 G 18 10.00 Fair CLR 60.8 39.2 45% 29.9 0.0
07 11:15 NW 12 G 17 10.00 Fair CLR 60.8 37.4 42% 29.91 0.0
07 10:55 W 10 10.00 Fair CLR 59 37.4 45% 29.91 0.0
07 10:35 W 14 10.00 Fair CLR 59 37.4 45% 29.92 0.0
07 10:15 NW 10 G 16 10.00 A Few Clouds FEW110 59 39.2 48% 29.92 0.0
07 09:55 W 9 G 18 10.00 Partly Cloudy SCT110 59 37.4 45% 29.92 0.0
07 09:35 W 12 G 18 10.00 A Few Clouds FEW110 57.2 37.4 48% 29.91 0.0
07 09:15 W 12 10.00 Fair CLR 55.4 39.2 55% 29.92 0.0
07 08:55 SW 13 10.00 Fair CLR 53.6 37.4 54% 29.92 0.0
07 08:35 SW 10 G 17 10.00 Fair CLR 50 37.4 62% 46 29.92 0.0
07 08:15 SW 10 G 16 10.00 Fair CLR 48.2 35.6 62% 44 29.92 0.0
07 07:55 SW 9 10.00 Fair CLR 46.4 33.8 62% 42 29.93 0.0
07 07:35 SW 12 10.00 Fair CLR 44.6 33.8 66% 39 29.92 0.0
07 07:15 SW 9 10.00 Fair CLR 42.8 32 66% 38 29.92 0.0
07 06:55 SW 8 10.00 Fair CLR 42.8 32 66% 39 29.92 0.0
07 06:35 SW 8 10.00 Fair CLR 41 32 70% 36 29.92 0.0
07 06:15 SW 8 10.00 Fair CLR 41 30.2 66% 36 29.92 0.0
07 05:55 SW 8 10.00 Fair CLR 41 30.2 66% 36 29.92 0.0
07 05:35 SW 7 10.00 Fair CLR 39.2 30.2 70% 35 29.92 0.0
07 05:15 S 7 10.00 A Few Clouds FEW100 39.2 28.4 65% 35 29.93 0.0
07 04:55 S 6 10.00 A Few Clouds FEW110 39.2 28.4 65% 36 29.93 0.0
07 04:35 S 8 10.00 A Few Clouds FEW090 39.2 28.4 65% 34 29.93 0.0
07 04:15 S 8 10.00 Mostly Cloudy BKN090 39.2 28.4 65% 34 29.94 0.0
07 03:55 S 7 10.00 Mostly Cloudy BKN095 39.2 28.4 65% 35 29.95 0.0
07 03:35 S 7 10.00 Mostly Cloudy BKN090 39.2 28.4 65% 35 29.95 0.0
07 03:15 S 9 10.00 Overcast OVC095 39.2 28.4 65% 34 29.96 0.0
07 02:55 S 9 10.00 Overcast OVC090 39.2 28.4 65% 34 29.96 0.0
07 02:35 S 8 10.00 Partly Cloudy FEW038 SCT090 39.2 28.4 65% 34 29.97 0.0
07 02:15 S 8 10.00 A Few Clouds FEW040 39.2 26.6 61% 34 29.98 0.0
07 01:55 S 8 10.00 A Few Clouds FEW040 39.2 26.6 61% 34 29.98 0.0
07 01:35 S 8 10.00 A Few Clouds FEW037 39.2 26.6 61% 34 29.99 0.0
07 01:15 S 8 10.00 Fair CLR 39.2 26.6 61% 34 29.99 0.0
07 00:55 S 7 10.00 Fair CLR 39.2 28.4 65% 35 30 0.0
07 00:35 S 7 10.00 Fair CLR 39.2 28.4 65% 35 30 0.0
07 00:15 S 6 10.00 Fair CLR 37.4 30.2 75% 33 30 0.0
06 23:55 S 5 10.00 Fair CLR 41 28.4 61% 38 30 0.0
06 23:35 S 7 10.00 A Few Clouds FEW034 41 28.4 61% 37 30.01 0.0
06 23:15 S 6 9.00 Fair CLR 41 28.4 61% 38 30.01 0.0
06 22:55 S 3 8.00 A Few Clouds FEW037 FEW045 44.6 24.8 46% 30.01 0.0
06 22:35 Calm 10.00 Fair CLR 46.4 24.8 43% 30.01 0.0
06 22:15 S 3 9.00 Fair CLR 46.4 24.8 43% 30.01 0.0
06 21:55 Calm 10.00 Fair CLR 46.4 23 40% 30.01 0.0
06 21:35 Calm 10.00 Fair CLR 50 21.2 32% 30.01 0.0
06 21:15 NE 3 10.00 A Few Clouds FEW038 48.2 23 37% 30.01 0.0
06 20:55 Calm 10.00 Fair CLR 50 21.2 32% 30 0.0
06 20:35 Calm 9.00 Fair CLR 50 21.2 32% 30 0.0
06 20:15 N 3 10.00 Fair CLR 51.8 21.2 30% 30 0.0
06 19:55 NW 7 10.00 Fair CLR 51.8 23 32% 30 0.0
06 19:35 NW 10 10.00 Fair CLR 53.6 21.2 28% 30 0.0
06 19:15 NW 9 G 16 10.00 Fair CLR 55.4 21.2 26% 30 0.0
Date Time (cdt) Wind (mph) Vis. (mi.) Weather Sky Cond. Air Dwpt Max. Min. Relative Humidity Wind Chill (°F) Heat Index (°F) altimeter (in) sea level (mb) 1 hr 3 hr 6 hr
6 hour
Temperature (ºF) Pressure Precipitation (in)